This is the latest recevied weather packets stored in our database for station/object G4KVI. If no packets are shown the sender has not sent any weather packets the latest 10 day(s).
| Time | Temp. | Humidity | Pressure | Rain* | Wind** | Luminosity | Snow |
|---|---|---|---|---|---|---|---|
| 1787479804 | 19.44° C | 53% | 1027.5 hPa | 0 mm | - | 583 W/m² | - |
| 1787479503 | 19.44° C | 53% | 1027.9 hPa | 0 mm | - | 574 W/m² | - |
| 1787479204 | 19.44° C | 54% | 1027.7 hPa | 0 mm | - | 563 W/m² | - |
| 1787478903 | 19.44° C | 54% | 1027.9 hPa | 0 mm | - | 554 W/m² | - |
| 1787478603 | 19.44° C | 56% | 1027.6 hPa | 0 mm | - | 548 W/m² | - |
| 1787478303 | 18.89° C | 55% | 1027.9 hPa | 0 mm | - | 539 W/m² | - |
| 1787478003 | 18.33° C | 55% | 1028 hPa | 0 mm | - | 530 W/m² | - |
| 1787477703 | 18.33° C | 56% | 1027.9 hPa | 0 mm | - | 520 W/m² | - |
| 1787477403 | 18.33° C | 57% | 1027.9 hPa | 0 mm | - | 510 W/m² | - |
| 1787477104 | 18.89° C | 57% | 1027.9 hPa | 0 mm | - | 500 W/m² | - |
| 1787476803 | 18.33° C | 58% | 1028.1 hPa | 0 mm | - | 486 W/m² | - |
| 1787476503 | 17.78° C | 59% | 1028.1 hPa | 0 mm | - | 477 W/m² | - |
| 1787476203 | 17.78° C | 61% | 1028.1 hPa | 0 mm | - | 465 W/m² | - |
| 1787475903 | 17.78° C | 60% | 1027.9 hPa | 0 mm | - | 454 W/m² | - |
| 1787475603 | 17.78° C | 62% | 1028 hPa | 0 mm | - | 443 W/m² | - |
| 1787475303 | 16.67° C | 65% | 1028 hPa | 0 mm | - | 430 W/m² | - |
| 1787475004 | 16.11° C | 66% | 1028.2 hPa | 0 mm | - | 418 W/m² | - |
| 1787474703 | 16.11° C | 66% | 1028.2 hPa | 0 mm | - | 407 W/m² | - |
| 1787474403 | 16.11° C | 66% | 1028.2 hPa | 0 mm | - | 394 W/m² | - |
| 1787474103 | 16.11° C | 66% | 1028.2 hPa | 0 mm | - | 383 W/m² | - |
| 1787473803 | 15.56° C | 70% | 1028 hPa | 0 mm | - | 370 W/m² | - |
| 1787473503 | 15.56° C | 67% | 1028.1 hPa | 0 mm | - | 357 W/m² | - |
| 1787473203 | 15.56° C | 68% | 1028 hPa | 0 mm | - | 345 W/m² | - |
| 1787472903 | 15.56° C | 68% | 1028.2 hPa | 0 mm | - | 332 W/m² | - |
| 1787472603 | 15.56° C | 68% | 1028 hPa | 0 mm | - | 319 W/m² | - |
* Rain latest hour (hover to see other rain measurements)
** Current wind speed in m/s (hover to see current wind gust speed)